Knoxville, TN

7:29 AM EDT on September 20, 2017 (GMT -0400)
McGhee Tyson

Weather History for KTYS - February, 2012

Change the Weather History Date:

Friday, February 10, 2012

  Actual Average Record
Temperature  
Mean Temperature 37 °F 41 °F  
Max Temperature 45 °F 51 °F 73 °F (1932)
Min Temperature 29 °F 31 °F -3 °F (1899)
Degree Days  
Heating Degree Days 28 24  
Month to date heating degree days 187 248  
Since 1 July heating degree days 2114 2510  
Cooling Degree Days 0 0  
Month to date cooling degree days 0 0  
Year to date cooling degree days 0 0  
Moisture  
Dew Point 30 °F    
Average Humidity 75    
Maximum Humidity 92    
Minimum Humidity 58    
Precipitation  
Precipitation T in 0.14 in 2.70 in (1994)
Month to date precipitation 1.26 1.51  
Year to date precipitation 6.93 5.83  
Snow  
Snow 0.00 in 0.10 in - ()
Month to date snowfall 0.0 0.7  
Since 1 July snowfall 0.1 4.2  
Snow Depth 0.00 in    
Sea Level Pressure  
Sea Level Pressure 30.08 in    
Wind  
Wind Speed 4 mph (West)    
Max Wind Speed 15 mph    
Max Gust Speed 20 mph    
Visibility 10 miles    
Events Rain    
T = Trace of Precipitation, MM = Missing Value Source: NWS Daily Summary

Daily Weather History Graph

Daily Weather History Graph

Search for Another Location

Airport or City:

Trip Planner

Search our weather history database for the weather conditions in past years. The results will help you decide how hot, cold, wet, or windy it might be!

Date:

Astronomy

Feb. 10, 2012 Rise Set
Actual Time 7:28 AM EST 6:12 PM EST
Civil Twilight 7:02 AM EST 6:38 PM EST
Nautical Twilight 6:32 AM EST 7:08 PM EST
Astronomical Twilight 6:02 AM EST 7:38 PM EST
Moon 9:39 PM EST (2/10) 8:45 AM EST (2/10)
Length of Visible Light 11h 36m
Length of Day
10h 43m
Waning Gibbous, 90% of the Moon is Illuminated
Feb 10
Waning Gibbous
Feb 14
Last Quarter
Feb 21
New
Feb 29
First Quarter
Mar 8
Full

Hourly Weather History & Observations

Time (EST) Temp. Windchill Dew Point Humidity Pressure Visibility Wind Dir Wind Speed Gust Speed Precip Events Conditions
12:53 AM 34.0 °F 31.0 °F 27.0 °F 75% 30.19 in 10.0 mi NNE 3.5 mph - N/A   Clear
1:53 AM 32.0 °F - 27.0 °F 82% 30.19 in 10.0 mi Calm Calm - N/A   Clear
2:53 AM 30.9 °F - 26.1 °F 82% 30.17 in 10.0 mi Calm Calm - N/A   Clear
3:53 AM 28.9 °F - 26.1 °F 89% 30.16 in 9.0 mi Calm Calm - N/A   Clear
4:53 AM 30.0 °F - 27.0 °F 88% 30.14 in 8.0 mi Calm Calm - N/A   Clear
5:53 AM 30.0 °F - 26.1 °F 85% 30.13 in 10.0 mi Calm Calm - N/A   Clear
6:53 AM 30.0 °F - 27.0 °F 88% 30.14 in 8.0 mi Calm Calm - N/A   Clear
7:53 AM 30.0 °F - 26.1 °F 85% 30.15 in 8.0 mi Calm Calm - N/A   Partly Cloudy
8:53 AM 30.9 °F - 28.9 °F 92% 30.16 in 6.0 mi Calm Calm - N/A   Partly Cloudy
9:53 AM 35.1 °F - 28.9 °F 78% 30.15 in 9.0 mi Calm Calm - N/A   Clear
10:53 AM 37.0 °F - 28.9 °F 73% 30.13 in 10.0 mi Calm Calm - N/A   Clear
11:53 AM 39.9 °F - 30.0 °F 68% 30.09 in 10.0 mi Calm Calm - N/A   Partly Cloudy
12:53 PM 42.1 °F - 30.0 °F 62% 30.04 in 10.0 mi Calm Calm - N/A   Mostly Cloudy
1:53 PM 44.1 °F 39.0 °F 30.9 °F 60% 30.03 in 10.0 mi West 9.2 mph - N/A   Mostly Cloudy
2:53 PM 44.1 °F 38.1 °F 30.9 °F 60% 30.04 in 10.0 mi WSW 11.5 mph - N/A   Overcast
3:53 PM 44.1 °F 40.1 °F 32.0 °F 63% 30.01 in 10.0 mi SW 6.9 mph - 0.00 in   Overcast
4:53 PM 44.1 °F 37.7 °F 30.9 °F 60% 30.00 in 10.0 mi West 12.7 mph - 0.00 in   Overcast
5:53 PM 43.0 °F 38.8 °F 30.0 °F 60% 30.00 in 10.0 mi West 6.9 mph - N/A   Overcast
6:53 PM 43.0 °F 38.8 °F 30.0 °F 60% 30.00 in 10.0 mi WSW 6.9 mph - N/A   Overcast
7:53 PM 42.1 °F 37.7 °F 32.0 °F 67% 30.00 in 10.0 mi West 6.9 mph - 0.00 in Rain Light Rain
8:53 PM 41.0 °F 36.4 °F 33.1 °F 73% 30.00 in 10.0 mi WNW 6.9 mph - 0.00 in   Overcast
9:53 PM 39.0 °F 33.4 °F 33.1 °F 79% 30.00 in 10.0 mi NW 8.1 mph - N/A   Overcast
10:53 PM 39.0 °F 34.0 °F 34.0 °F 82% 29.99 in 10.0 mi West 6.9 mph - N/A   Overcast
11:53 PM 37.9 °F 32.7 °F 34.0 °F 86% 29.98 in 10.0 mi WSW 6.9 mph - 0.00 in Rain Light Rain